#timestamp,LO_Frequency,Hit,StdDev 
1607130015.8,286047002.3,P
1607130035.6,286047001.7,N
1607130055.4,286047001.8,N
1607130075.3,286047004.2,Y
1607130095.1,286047000.5,P
1607130115.8,286047000.1,N
1607130135.7,286047000.9,N
1607130155.5,286046998.3,Y
1607130175.4,286047001.1,P
1607130195.2,286046998.3,P
1607130215.0,286046998.1,N
1607130215.9,286046998.1,N
1607130235.8,286047000.0,N
1607130255.6,286046998.2,N
1607130275.4,286046999.5,N
1607130295.3,286046998.1,N
1607130315.1,286046998.2,N
1607130316.0,286046998.2,N
1607130335.8,286047001.0,N
1607130355.7,286047002.8,N
1607130375.5,286047002.7,N
1607130395.3,286047000.1,N
1607130415.2,286047000.3,N
1607130435.9,286047000.7,N
1607130455.7,286046999.3,N
1607130475.6,286046999.5,N
1607130495.4,286046996.5,N
1607130515.2,286046995.7,N
1607130535.0,286046995.5,N
1607130536.0,286046995.5,N
1607130555.8,286046997.9,N
1607130575.6,286046997.1,N
1607130595.5,286046997.0,N
1607130615.3,286046996.6,N
1607130635.1,286046995.0,N
1607130655.9,286046996.7,N
1607130675.7,286046997.3,N
1607130695.5,286046997.4,N
1607130715.3,286046997.4,N
1607130735.2,286046997.6,N
1607130755.0,286046998.0,N
1607130755.9,286046998.0,N
1607130775.8,286046995.0,N
1607130795.6,286046994.9,N
1607130815.4,286046997.1,N
1607130835.2,286046996.8,N
1607130855.1,286046996.8,N
1607130856.0,286046996.8,N
1607130875.8,286046997.5,N
1607130895.6,286046995.3,N
1607130915.5,286046999.5,N
1607130935.3,286046998.3,N
1607130955.1,286046996.7,N
1607130975.9,286046999.3,N
1607130995.7,286046997.0,N
1607131015.5,286046996.7,N
1607131035.4,286046997.5,N
1607131055.2,286046997.2,N
1607131075.0,286046999.1,N
1607131076.0,286046999.1,N
1607131095.8,286046996.9,N
1607131115.6,286046996.6,N
1607131135.4,286046997.1,N
1607131155.3,286046996.5,Y
1607131175.1,286047002.3,P
1607131195.9,286047000.2,N
1607131215.7,286047000.5,N
1607131235.5,286047000.9,N
1607131255.4,286046998.1,N
1607131275.2,286047000.6,N
1607131295.0,286047002.8,N
1607131295.9,286047002.8,N
1607131315.8,286047002.2,N
1607131335.6,286047002.5,N
1607131355.4,286047001.4,N
1607131375.3,286047001.4,N
1607131395.1,286047001.5,N
1607131396.0,286047001.5,N
1607131415.8,286047002.1,N
1607131435.7,286047004.1,N
1607131455.5,286047002.0,N
1607131475.3,286047003.7,N
1607131495.2,286047003.6,N
1607131515.9,286047004.4,N
1607131535.7,286047003.0,N
1607131555.6,286047005.9,Y
1607131575.4,286047004.0,P
1607131595.2,286047001.5,N
1607131615.1,286047004.3,P
1607131616.0,286047004.3,Y
1607131635.8,286046998.7,P
1607131655.6,286047000.8,N
1607131675.5,286046999.0,N
1607131695.3,286046999.5,N
1607131715.1,286046997.1,N
1607131735.9,286046994.9,N
1607131755.7,286046996.9,N
1607131775.5,286046999.2,N
1607131795.4,286046997.0,N
1607131815.2,286046999.2,N
1607131835.0,286046999.2,N
1607131835.9,286046999.2,N
1607131855.8,286046999.4,N
1607131875.6,286046998.1,N
1607131895.4,286046999.2,N
1607131915.3,286046994.9,N
1607131935.1,286046995.0,N
1607131936.0,286046995.0,N
1607131955.8,286046996.6,N
1607131975.7,286046997.7,N
1607131995.5,286046997.1,N
1607132015.3,286046997.6,N
1607132035.2,286046999.2,N
1607132055.9,286046999.6,N
1607132075.7,286046997.7,N
1607132095.6,286046997.7,N
1607132115.4,286046997.5,N
1607132135.2,286046998.8,N
1607132155.1,286046996.8,N
1607132156.0,286046996.8,N
1607132175.8,286046996.9,N
1607132195.6,286046999.2,N
1607132215.5,286046998.8,N
1607132235.3,286046998.8,N
1607132255.1,286046998.5,N
1607132275.9,286046999.4,N
1607132295.7,286046999.5,N
1607132315.5,286046998.8,N
1607132335.4,286046998.3,N
1607132355.2,286046998.3,N
1607132375.0,286046999.0,N
1607132375.9,286046999.0,N
1607132395.8,286046999.2,N
1607132415.6,286046997.4,N
1607132435.4,286046995.9,Y
1607132455.3,286046996.5,P
1607132475.1,286046997.1,P
1607132476.0,286046997.1,P
1607132495.8,286046999.4,N
1607132515.7,286046999.1,N
1607132535.5,286046998.1,N
1607132555.3,286046999.9,N
1607132575.2,286047000.8,N
1607132595.9,286047001.2,N
1607132615.7,286046998.6,N
1607132635.6,286047000.7,N
1607132655.4,286047000.2,N
1607132675.2,286046998.5,N
1607132695.1,286046996.5,N
1607132696.0,286046996.5,N
1607132715.8,286046996.8,N
1607132735.6,286046999.3,N
1607132755.5,286046999.4,N
1607132775.3,286046998.5,N
1607132795.1,286047000.2,N
1607132815.9,286047000.4,N
1607132835.7,286047000.7,N
1607132855.5,286046999.5,N
1607132875.4,286046998.9,N
1607132895.2,286046999.1,N
1607132915.0,286046999.6,N
1607132915.9,286046999.6,N
1607132935.8,286046997.9,N
1607132955.6,286046999.3,N
1607132975.4,286046999.0,N
1607132995.3,286046996.8,N
1607133015.1,286046998.4,N
1607133016.0,286046998.4,N
1607133035.8,286046999.2,N
1607133055.7,286046999.5,N
1607133075.5,286046998.9,N
1607133095.3,286047000.3,N
1607133115.2,286046998.5,N
1607133135.9,286047001.1,N
1607133155.7,286046999.8,N
1607133175.6,286047000.7,N
1607133195.4,286046998.2,N
1607133215.2,286046998.8,N
1607133235.1,286046998.4,N
1607133236.0,286046998.4,N
1607133255.8,286046998.8,N
1607133275.6,286046999.5,N
1607133295.5,286046998.8,N
1607133315.3,286047001.0,N
1607133335.1,286047000.8,N
1607133355.9,286046999.3,N
1607133375.7,286047000.7,N
1607133395.5,286046999.7,N
1607133415.4,286046998.6,N
1607133435.2,286046998.9,N
1607133455.0,286046997.1,N
1607133455.9,286046997.1,N
1607133475.8,286046998.2,N
1607133495.6,286046999.4,N
1607133515.4,286046997.2,N
1607133535.3,286046999.6,N
1607133555.1,286046999.4,N
1607133556.0,286046999.4,N
1607133575.8,286046997.6,N
1607133595.7,286046996.6,Y
